2022-01-17 00:03:14 r, 15.97m,0000000035Hz,0000013355c,0000000.029s, 007.4C,00002191
2022-01-17 00:13:11 r, 15.86m,0000000038Hz,0000012154c,0000000.026s, 007.7C,00002191
2022-01-17 00:23:11 r, 15.87m,0000000037Hz,0000012284c,0000000.027s, 007.7C,00002191
2022-01-17 00:33:11 r, 16.00m,0000000033Hz,0000013823c,0000000.030s, 007.7C,00002191
2022-01-17 00:43:11 r, 15.96m,0000000035Hz,0000013304c,0000000.029s, 008.0C,00002191
2022-01-17 00:53:14 r, 15.91m,0000000036Hz,0000012646c,0000000.027s, 007.7C,00002191
2022-01-17 01:03:12 r, 15.92m,0000000037Hz,0000012798c,0000000.028s, 008.0C,00002191
2022-01-17 01:13:11 r, 15.87m,0000000038Hz,0000012180c,0000000.026s, 008.0C,00002191
2022-01-17 01:23:12 r, 15.80m,0000000040Hz,0000011471c,0000000.025s, 008.0C,00002191
2022-01-17 01:33:13 r, 15.79m,0000000041Hz,0000011289c,0000000.024s, 008.0C,00002191
2022-01-17 01:43:11 r, 15.78m,0000000041Hz,0000011232c,0000000.024s, 008.0C,00002191
2022-01-17 01:53:11 r, 15.84m,0000000039Hz,0000011949c,0000000.026s, 008.0C,00002191
2022-01-17 02:03:14 r, 15.86m,0000000038Hz,0000012037c,0000000.026s, 008.3C,00002191
2022-01-17 02:13:11 r, 15.87m,0000000037Hz,0000012246c,0000000.027s, 008.3C,00002191
2022-01-17 02:23:11 r, 15.87m,0000000037Hz,0000012253c,0000000.027s, 008.3C,00002191
2022-01-17 02:33:14 r, 15.94m,0000000035Hz,0000013020c,0000000.028s, 008.3C,00002191
2022-01-17 02:43:11 r, 15.95m,0000000035Hz,0000013155c,0000000.029s, 008.3C,00002191
2022-01-17 02:53:14 r, 15.99m,0000000034Hz,0000013719c,0000000.030s, 008.7C,00002191
2022-01-17 03:03:12 r, 16.07m,0000000031Hz,0000014637c,0000000.032s, 008.7C,00002191
2022-01-17 03:13:11 r, 16.11m,0000000030Hz,0000015275c,0000000.033s, 008.7C,00002191
2022-01-17 03:23:12 r, 16.20m,0000000028Hz,0000016637c,0000000.036s, 008.7C,00002191
2022-01-17 03:33:13 r, 16.21m,0000000028Hz,0000016539c,0000000.036s, 009.0C,00002191
2022-01-17 03:43:11 r, 16.31m,0000000026Hz,0000018294c,0000000.040s, 009.0C,00002191
2022-01-17 03:53:11 r, 16.23m,0000000027Hz,0000017102c,0000000.037s, 009.3C,00002191
2022-01-17 04:03:11 r, 16.31m,0000000025Hz,0000018426c,0000000.040s, 009.6C,00002191
2022-01-17 04:13:11 r, 16.38m,0000000024Hz,0000019516c,0000000.042s, 009.9C,00002191
2022-01-17 04:23:11 r, 16.42m,0000000023Hz,0000020342c,0000000.044s, 010.3C,00002191
2022-01-17 04:33:14 r, 16.44m,0000000023Hz,0000020697c,0000000.045s, 010.6C,00002191
2022-01-17 04:43:11 r, 16.49m,0000000021Hz,0000021671c,0000000.047s, 010.6C,00002191
2022-01-17 04:53:14 r, 16.54m,0000000020Hz,0000022662c,0000000.049s, 010.9C,00002191
2022-01-17 05:03:12 r, 16.52m,0000000021Hz,0000022308c,0000000.048s, 010.9C,00002191
2022-01-17 05:13:11 r, 16.63m,0000000018Hz,0000024641c,0000000.053s, 010.6C,00002191
2022-01-17 05:23:14 r, 16.65m,0000000018Hz,0000024996c,0000000.054s, 010.6C,00002191
2022-01-17 05:33:12 r, 16.76m,0000000016Hz,0000027786c,0000000.060s, 010.6C,00002191
2022-01-17 05:43:11 r, 16.90m,0000000015Hz,0000031540c,0000000.068s, 010.6C,00002191
2022-01-17 05:53:12 r, 16.89m,0000000015Hz,0000031138c,0000000.068s, 010.3C,00002191
2022-01-17 06:03:13 r, 16.88m,0000000015Hz,0000031033c,0000000.067s, 009.9C,00002191
2022-01-17 06:13:11 r, 16.85m,0000000015Hz,0000030033c,0000000.065s, 009.6C,00002191
2022-01-17 06:23:13 r, 16.99m,0000000014Hz,0000033913c,0000000.074s, 009.0C,00002191
2022-01-17 06:33:12 r, 17.16m,0000000011Hz,0000040051c,0000000.087s, 008.3C,00002191
2022-01-17 06:43:11 r, 17.22m,0000000011Hz,0000042548c,0000000.092s, 007.7C,00002191
2022-01-17 06:53:12 r, 17.34m,0000000010Hz,0000047386c,0000000.103s, 007.4C,00002191
2022-01-17 07:03:14 r, 17.36m,0000000009Hz,0000048363c,0000000.105s, 007.0C,00002191
2022-01-17 07:13:11 r, 17.28m,0000000010Hz,0000044989c,0000000.098s, 006.7C,00002191
2022-01-17 07:23:14 r, 16.40m,0000000023Hz,0000019932c,0000000.043s, 006.4C,00002191
2022-01-17 07:33:12 r, 14.78m,0000000101Hz,0000004503c,0000000.010s, 006.1C,00002191
2022-01-17 07:43:11 r, 12.99m,0000000540Hz,0000000000c,0000000.000s, 005.8C,00002191
2022-01-17 07:53:14 r, 11.09m,0000003114Hz,0000000000c,0000000.000s, 005.4C,00002191
2022-01-17 08:03:12 r, 09.30m,0000016011Hz,0000000000c,0000000.000s, 005.4C,00002191
2022-01-17 08:13:11 r, 08.03m,0000052047Hz,0000000000c,0000000.000s, 005.1C,00002191
2022-01-17 08:23:12 r, 07.07m,0000125350Hz,0000000000c,0000000.000s, 005.1C,00002191
2022-01-17 08:33:13 r, 06.44m,0000223749Hz,0000000000c,0000000.000s, 005.1C,00002191
2022-01-17 08:43:11 r, 05.92m,0000363468Hz,0000000000c,0000000.000s, 004.8C,00002191
2022-01-17 08:53:11 r, 00.00m,0000598879Hz,0000000000c,0000000.000s, 005.1C,00002191
2022-01-17 09:03:14 r, 00.00m,0000598874Hz,0000000000c,0000000.000s, 005.4C,00002191
2022-01-17 09:13:11 r, 00.00m,0000598876Hz,0000000000c,0000000.000s, 005.4C,00002191
2022-01-17 09:23:11 r, 00.00m,0000598794Hz,0000000000c,0000000.000s, 005.8C,00002191
2022-01-17 09:33:14 r, 00.00m,0000598757Hz,0000000000c,0000000.000s, 006.1C,00002191
2022-01-17 09:43:11 r, 00.00m,0000598742Hz,0000000000c,0000000.000s, 006.1C,00002191
2022-01-17 09:53:11 r, 00.00m,0000598722Hz,0000000000c,0000000.000s, 006.1C,00002191
2022-01-17 10:03:12 r, 00.00m,0000598845Hz,0000000000c,0000000.000s, 006.1C,00002191
2022-01-17 10:13:13 r, 00.00m,0000598730Hz,0000000000c,0000000.000s, 006.4C,00002191
2022-01-17 10:23:11 r, 00.00m,0000598673Hz,0000000000c,0000000.000s, 006.4C,00002191
2022-01-17 10:33:13 r, 00.00m,0000598606Hz,0000000000c,0000000.000s, 006.7C,00002191
2022-01-17 10:43:12 r, 00.00m,0000598438Hz,0000000000c,0000000.000s, 006.7C,00002191
2022-01-17 10:53:11 r, 00.00m,0000598496Hz,0000000000c,0000000.000s, 006.7C,00002191
2022-01-17 11:03:12 r, 00.00m,0000598479Hz,0000000000c,0000000.000s, 006.7C,00002191
2022-01-17 11:13:14 r, 00.00m,0000598457Hz,0000000000c,0000000.000s, 007.0C,00002191
2022-01-17 11:23:11 r, 00.00m,0000598543Hz,0000000000c,0000000.000s, 007.4C,00002191
2022-01-17 11:33:14 r, 00.00m,0000598500Hz,0000000000c,0000000.000s, 007.7C,00002191
2022-01-17 11:43:12 r, 00.00m,0000598399Hz,0000000000c,0000000.000s, 008.0C,00002191
2022-01-17 11:53:11 r, 00.00m,0000598440Hz,0000000000c,0000000.000s, 008.0C,00002191
2022-01-17 12:03:12 r, 00.00m,0000598478Hz,0000000000c,0000000.000s, 008.0C,00002191
2022-01-17 12:13:13 r, 00.00m,0000598472Hz,0000000000c,0000000.000s, 007.7C,00002191
2022-01-17 12:23:11 r, 00.00m,0000598438Hz,0000000000c,0000000.000s, 007.7C,00002191
2022-01-17 12:33:13 r, 00.00m,0000598385Hz,0000000000c,0000000.000s, 008.3C,00002191
2022-01-17 12:43:12 r, 00.00m,0000598372Hz,0000000000c,0000000.000s, 008.3C,00002191
2022-01-17 12:53:11 r, 00.00m,0000598368Hz,0000000000c,0000000.000s, 008.7C,00002191
2022-01-17 13:03:12 r, 00.00m,0000598433Hz,0000000000c,0000000.000s, 008.7C,00002191
2022-01-17 13:13:14 r, 00.00m,0000598489Hz,0000000000c,0000000.000s, 008.3C,00002191
2022-01-17 13:23:11 r, 00.00m,0000598542Hz,0000000000c,0000000.000s, 008.0C,00002191
2022-01-17 13:33:14 r, 00.00m,0000598557Hz,0000000000c,0000000.000s, 007.4C,00002191
2022-01-17 13:43:12 r, 00.00m,0000598651Hz,0000000000c,0000000.000s, 006.4C,00002191
2022-01-17 13:53:11 r, 00.00m,0000598572Hz,0000000000c,0000000.000s, 006.4C,00002191
2022-01-17 14:03:14 r, 00.00m,0000598707Hz,0000000000c,0000000.000s, 006.1C,00002191
2022-01-17 14:13:12 r, 00.00m,0000598524Hz,0000000000c,0000000.000s, 006.1C,00002191
2022-01-17 14:23:11 r, 00.00m,0000598621Hz,0000000000c,0000000.000s, 006.4C,00002191
2022-01-17 14:33:12 r, 00.00m,0000598645Hz,0000000000c,0000000.000s, 006.4C,00002191
2022-01-17 14:43:13 r, 00.00m,0000598680Hz,0000000000c,0000000.000s, 005.8C,00002191
2022-01-17 14:53:11 r, 00.00m,0000598625Hz,0000000000c,0000000.000s, 005.8C,00002191
2022-01-17 15:03:12 r, 00.00m,0000598580Hz,0000000000c,0000000.000s, 005.4C,00002191
2022-01-17 15:13:12 r, 00.00m,0000598729Hz,0000000000c,0000000.000s, 005.4C,00002191
2022-01-17 15:23:11 r, 00.00m,0000598739Hz,0000000000c,0000000.000s, 005.1C,00002191
2022-01-17 15:33:12 r, 00.00m,0000598823Hz,0000000000c,0000000.000s, 004.5C,00002191
2022-01-17 15:43:14 r, 00.00m,0000598847Hz,0000000000c,0000000.000s, 003.8C,00002191
2022-01-17 15:53:11 r, 00.00m,0000512995Hz,0000000000c,0000000.000s, 003.5C,00002191
2022-01-17 16:03:14 r, 00.00m,0000406573Hz,0000000000c,0000000.000s, 003.2C,00002191
2022-01-17 16:13:12 r, 00.00m,0000600738Hz,0000000000c,0000000.000s, 002.9C,00002191
2022-01-17 16:23:11 r, 00.00m,0000592111Hz,0000000000c,0000000.000s, 002.9C,00002191
2022-01-17 16:33:13 r, 05.97m,0000347734Hz,0000000000c,0000000.000s, 002.9C,00002191
2022-01-17 16:43:12 r, 06.21m,0000277879Hz,0000000000c,0000000.000s, 002.5C,00002191
2022-01-17 16:53:11 r, 06.84m,0000155923Hz,0000000000c,0000000.000s, 002.5C,00002191
2022-01-17 17:03:12 r, 07.73m,0000068956Hz,0000000000c,0000000.000s, 002.5C,00002191
2022-01-17 17:13:12 r, 09.10m,0000019425Hz,0000000000c,0000000.000s, 002.5C,00002191
2022-01-17 17:23:11 r, 10.89m,0000003720Hz,0000000000c,0000000.000s, 002.5C,00002191
2022-01-17 17:33:12 r, 12.76m,0000000665Hz,0000000000c,0000000.000s, 002.5C,00002191
2022-01-17 17:43:11 r, 14.56m,0000000126Hz,0000003663c,0000000.008s, 002.5C,00002191
2022-01-17 17:53:11 r, 16.13m,0000000030Hz,0000015585c,0000000.034s, 002.5C,00002191
2022-01-17 18:03:11 r, 16.83m,0000000016Hz,0000029568c,0000000.064s, 002.5C,00002191
2022-01-17 18:13:11 r, 16.89m,0000000014Hz,0000031200c,0000000.068s, 002.5C,00002191
2022-01-17 18:23:11 r, 16.98m,0000000013Hz,0000034231c,0000000.074s, 002.5C,00002191
2022-01-17 18:33:13 r, 16.94m,0000000014Hz,0000032924c,0000000.071s, 002.5C,00002191
2022-01-17 18:43:12 r, 16.82m,0000000016Hz,0000029420c,0000000.064s, 002.5C,00002191
2022-01-17 18:53:11 r, 16.61m,0000000019Hz,0000024189c,0000000.052s, 002.5C,00002191
2022-01-17 19:03:13 r, 16.56m,0000000020Hz,0000023020c,0000000.050s, 002.5C,00002191
2022-01-17 19:13:12 r, 16.58m,0000000019Hz,0000023488c,0000000.051s, 002.5C,00002191
2022-01-17 19:23:11 r, 16.61m,0000000019Hz,0000024130c,0000000.052s, 002.5C,00002191
2022-01-17 19:33:12 r, 16.60m,0000000019Hz,0000023987c,0000000.052s, 002.5C,00002191
2022-01-17 19:43:12 r, 16.56m,0000000020Hz,0000023167c,0000000.050s, 002.5C,00002191
2022-01-17 19:53:11 r, 16.77m,0000000017Hz,0000028017c,0000000.061s, 002.2C,00002191
2022-01-17 20:03:11 r, 16.70m,0000000017Hz,0000026161c,0000000.057s, 001.9C,00002191
2022-01-17 20:13:13 r, 16.22m,0000000027Hz,0000017001c,0000000.037s, 001.9C,00002191
2022-01-17 20:23:11 r, 16.22m,0000000027Hz,0000016983c,0000000.037s, 001.6C,00002191
2022-01-17 20:33:11 r, 16.18m,0000000028Hz,0000016269c,0000000.035s, 001.9C,00002191
2022-01-17 20:43:13 r, 16.18m,0000000029Hz,0000016318c,0000000.035s, 001.9C,00002191
2022-01-17 20:53:11 r, 16.15m,0000000029Hz,0000015865c,0000000.034s, 001.9C,00002191
2022-01-17 21:03:11 r, 16.09m,0000000031Hz,0000014984c,0000000.033s, 001.9C,00002191
2022-01-17 21:13:12 r, 16.12m,0000000030Hz,0000015299c,0000000.033s, 001.9C,00002191
2022-01-17 21:23:11 r, 16.01m,0000000033Hz,0000013883c,0000000.030s, 001.9C,00002191
2022-01-17 21:33:12 r, 15.95m,0000000035Hz,0000013133c,0000000.029s, 001.9C,00002191
2022-01-17 21:43:12 r, 15.94m,0000000035Hz,0000013055c,0000000.028s, 001.9C,00002191
2022-01-17 21:53:11 r, 15.91m,0000000037Hz,0000012647c,0000000.027s, 001.9C,00002191
2022-01-17 22:03:12 r, 15.87m,0000000037Hz,0000012287c,0000000.027s, 001.9C,00002191
2022-01-17 22:13:12 r, 15.84m,0000000038Hz,0000011922c,0000000.026s, 001.9C,00002191
2022-01-17 22:23:11 r, 15.83m,0000000039Hz,0000011789c,0000000.026s, 001.9C,00002191
2022-01-17 22:33:12 r, 15.85m,0000000038Hz,0000012021c,0000000.026s, 002.2C,00002191
2022-01-17 22:43:13 r, 15.82m,0000000039Hz,0000011639c,0000000.025s, 002.2C,00002191
2022-01-17 22:53:11 r, 15.79m,0000000041Hz,0000011311c,0000000.025s, 002.5C,00002191
2022-01-17 23:03:11 r, 15.74m,0000000042Hz,0000010917c,0000000.024s, 002.5C,00002191
2022-01-17 23:13:12 r, 15.71m,0000000043Hz,0000010611c,0000000.023s, 002.9C,00002191
2022-01-17 23:23:11 r, 15.78m,0000000041Hz,0000011229c,0000000.024s, 003.2C,00002191
2022-01-17 23:33:13 r, 15.73m,0000000043Hz,0000010806c,0000000.023s, 003.5C,00002191
2022-01-17 23:43:12 r, 15.80m,0000000041Hz,0000011406c,0000000.025s, 003.5C,00002191
2022-01-17 23:53:11 r, 15.72m,0000000043Hz,0000010646c,0000000.023s, 003.8C,00002191
